Regional Weather Roundup
Issued by NWS State College, PA

Home | Current Version | Previous Version | Text Only | Print | Product List | Glossary On
Versions: 1 2 3 4 5 6 7 8 9 10 11 12 13 14 15 16 17 18 19 20 21 22 23 24 25 26 27 28 29 30 31 32 33 34 35 36 37 38 39 40 41 42 43 44 45 46 47 48 49 50
000
ASUS41 KCTP 032003
RWRCTP

REGIONAL WEATHER ROUNDUP
NATIONAL WEATHER SERVICE STATE COLLEGE PA
400 PM EDT MON AUG 03 2015

Note: "fair" indicates few or no clouds below 12,000 feet with no
significant weather and/or obstructions to visibility.

* = STATION THAT DOES NOT REPORT PRECIPITATION /E.G. RAIN...SNOW...ETC/
    THUNDER OR FOG.

PAZ002>004-007>009-013>016-020>023-029>032-032100-
WESTERN PENNSYLVANIA

CITY           SKY/WX    TMP DP  RH WIND       PRES   REMARKS
ERIE           MOSUNNY   77  63  61 W13       29.81F
MEADVILLE      MOSUNNY   80  59  48 W7        29.83F
FRANKLIN*      MOSUNNY   81  59  47 W9G16     29.84F
NEW CASTLE     FAIR      84  63  49 W9        29.81F
BEAVER COUNTY  PTSUNNY   81  61  50 SW12      29.82F
BUTLER*        MOSUNNY   81  61  50 W10       29.83F
PITTSBURGH INT TSTM      80  61  52 W8        29.83F
PITTSBURGH     PTSUNNY   81  56  42 SW9       29.83F
INDIANA*       MOSUNNY   81  63  54 W8G14     29.88F
LATROBE        PTSUNNY   82  59  44 SW14      29.85F
WASHINGTON CO* NOT AVBL
$$

PAZ004>006-010>012-017>019-024>028-033>037-041-042-045-046-049>053-032100-
CENTRAL PENNSYLVANIA

CITY           SKY/WX    TMP DP  RH WIND       PRES   REMARKS
BRADFORD       PTSUNNY   78  57  48 SW9       29.85F
DUBOIS         PTSUNNY   81  58  45 SW13G18   29.85S
CLEARFIELD     PTSUNNY   81  58  45 SW10G20   29.85S
JOHNSTOWN      PTSUNNY   77  56  48 W8        29.90S
ALTOONA        MOSUNNY   83  59  44 W9        29.86F
STATE COLLEGE  PTSUNNY   81  61  50 W12G21    29.83F
WILLIAMSPORT   MOSUNNY   87  60  40 SW12G18   29.77S
SELINSGROVE    MOSUNNY   85  64  49 VRB3      29.79F
FT INDIANTOWN  MOSUNNY   87  64  45 SW6       29.80S
CAPITAL CITY   PTSUNNY   86  61  42 S9        29.79F
HARRISBURG     PTSUNNY   87  62  43 SW8       29.79F
YORK           MOSUNNY   85  64  49 SW7       29.81F
$$

PAZ038>040-043-044-047-048-054-055-060>062-067>071-032100-
EASTERN PENNSYLVANIA

CITY           SKY/WX    TMP DP  RH WIND       PRES   REMARKS
SCRANTON       PTSUNNY   85  58  39 W17       29.80S
MOUNT POCONO   CLOUDY    76  61  59 SW13G21   29.86R THUNDER
ALLENTOWN      PTSUNNY   86  62  44 SW14G20   29.79F
QUAKERTOWN*    PTCLDY    86  61  42 S9G21     29.82S
READING        PTSUNNY   87  64  46 SW12      29.79S
LANCASTER      PTSUNNY   86  62  44 SW16G22   29.81S
COATESVILLE    PTCLDY    84  63  48 SW6       29.84S
POTTSTOWN      MOSUNNY   87  61  41 SW9G17    29.83S
BLUE BELL      SUNNY     90  61  37 SW13G18   29.80S
DOYLESTOWN     MOSUNNY   87  57  35 SW10G18   29.80S
WILLOW GROVE   NOT AVBL
NORTH PHILA    SUNNY     91  55  29 SW14G23   29.81F
PHILADELPHIA   MOSUNNY   92  58  31 SW17G28   29.80F
$$


USA.gov is the U.S. government's official web portal to all federal, state and local government web resources and services.